Miscellaneous Local Product
Issued by NWS North Platte, NE

Home | Current Version | Previous Version | Text Only | Print | Product List | Glossary On
Versions: 1 2 3 4 5 6 7 8 9 10 11 12 13 14 15 16 17 18 19 20 21 22 23 24 25 26 27 28 29 30 31 32 33 34 35 36 37 38 39 40 41 42 43 44 45 46 47 48 49 50
000
AXUS43 KLBF 230110
MISLBF


WESTERN AND NORTH CENTRAL NEBRASKA HOURLY WEATHER ROUNDUP
NATIONAL WEATHER SERVICE NORTH PLATTE NE
700 PM CST SAT NOV 22 2014

***STATIONS NOT REPORTING VARIABLES SUCH AS SKY/WEATHER OR
PRESSURE ARE PROVIDED BY THE NEBRASKA DEPARTMENT OF
ROADS...RAWS...AND APRS NETWORKS...AND ARE NOT UNDER
NATIONAL WEATHER SERVICE QUALITY CONTROL***

...OBSERVATIONS IN AND NEAR THE EASTERN PANHANDLE OF NEBRASKA...

CITY           SKY/WX    TMP DP  RH WIND       PRES   REMARKS
PINE RIDGE     CLOUDY    42  30  62 CALM      29.48R
CHADRON        CLOUDY    48  32  53 SW12      29.47S
ALLIANCE       CLOUDY    49  32  52 W14       29.53S
SIDNEY         CLOUDY    50  19  29 NW16      29.57R
WHITECLAY        N/A     37  27  67 SE5         N/A  WCI  34
LISCO            N/A     53  26  35 W14         N/A
BIG SPRINGS      N/A     39  20  47 CALM        N/A
LEWELLEN         N/A     16 -18  20 CALM        N/A
$$

...OBSERVATIONS IN NORTH CENTRAL NEBRASKA...

CITY           SKY/WX    TMP DP  RH WIND       PRES   REMARKS
VALENTINE      CLOUDY    48  28  46 W6        29.46S
THEDFORD       CLOUDY    53  21  29 S8        29.50S
AINSWORTH      CLOUDY    49  27  42 SW6       29.47S
O`NEILL        CLOUDY    51  32  49 S12       29.49S
ORD            MOCLDY    41  27  57 CALM      29.52S
BROKEN BOW     CLOUDY    46  27  47 CALM      29.52F
BROWNLEE         N/A     54  19  25 S3          N/A
BREWSTER         N/A     50  28  42 S9          N/A
COMSTOCK         N/A     48  30  49 S6          N/A
$$

...OBSERVATIONS IN SOUTHWEST NEBRASKA AND FAR NORTHEAST COLORADO...

CITY           SKY/WX    TMP DP  RH WIND       PRES   REMARKS
WRAY           FAIR      50   9  19 NE5       29.52S
HOLYOKE        FAIR      46  16  29 NW7       29.54R
IMPERIAL       CLOUDY    47  14  26 N7        29.52S
OGALLALA       CLOUDY    43  19  39 CALM      29.52S
NORTH PLATTE   MOCLDY    38  25  59 E8        29.51F WCI  32
MCCOOK         MOCLDY    50  17  27 S7        29.51S
LEXINGTON      MOCLDY    47  32  56 SE6       29.53S
PAXTON           N/A     42  19  39 CALM        N/A
GOTHENBURG       N/A     44  25  46 CALM        N/A
CALLAWAY         N/A     45  28  51 S6          N/A
$$

...SOME WEATHER OBSERVATIONS FROM AROUND THE REGION...

CITY           SKY/WX    TMP DP  RH WIND       PRES   REMARKS
DENVER         CLOUDY    50  24  36 W9        29.59F
LARAMIE        PTCLDY    35  24  64 SW26G32   29.63F WCI  22
CHEYENNE       CLOUDY    42  24  49 W9        29.60F
SCOTTSBLUFF    CLOUDY    49  32  52 W7        29.54F
RAPID CITY     CLOUDY    46  29  51 CALM      29.41R
PIERRE         CLOUDY    40  31  70 SW6       29.41R
WINNER         FAIR      51  30  44 SW10      29.44R
SIOUX FALLS    CLOUDY    41  36  82 S17G28    29.48S
OMAHA          CLOUDY    54  52  93 S15       29.60F
KANSAS CITY    MOCLDY    55  51  86 S16       29.75S
WICHITA        CLOUDY    57  52  83 S15       29.71F
HAYS           CLOUDY    54  48  82 S16G22    29.60S
LIBERAL        CLEAR     54  39  58 S18       29.61F
GOODLAND       MOCLDY    51  20  29 S14       29.54F
$$



USA.gov is the U.S. government's official web portal to all federal, state and local government web resources and services.